Regional Weather Roundup
Issued by NWS

Home | Current Version | Previous Version | Graphics & Text | Print | Product List | Glossary On
Versions: 1 2 3 4 5 6 7 8 9 10 11 12 13 14 15 16 17 18 19 20 21 22 23 24 25 26 27 28 29 30 31 32 33 34 35 36 37 38 39 40 41 42 43 44 45 46 47 48 49 50
000
ASUS43 KFSD 262202
RWRSD

WEATHER ROUNDUP FOR SOUTH DAKOTA
NATIONAL WEATHER SERVICE SIOUX FALLS SD
400 PM CST FRI DEC 26 2014

NOTE: "FAIR" INDICATES FEW OR NO CLOUDS BELOW 12,000 FEET WITH NO
SIGNIFICANT WEATHER AND/OR OBSTRUCTIONS TO VISIBILITY.


SDZ001>005-009-010-012>017-262300-
NORTHWEST AND NORTH CENTRAL SOUTH DAKOTA

CITY           SKY/WX    TMP DP  RH WIND       PRES   REMARKS
BUFFALO          N/A     20  12  71 NW8       30.03R WCI  10
FAITH            N/A     19   9  65 N6        30.11R WCI  11
MOBRIDGE       CLOUDY    20  11  68 N8        30.13F WCI  10
$$

SDZ012>016-024>037-041>051-057-063-072>074-262300-
SOUTHWEST AND SOUTH CENTRAL SOUTH DAKOTA

CITY           SKY/WX    TMP DP  RH WIND       PRES   REMARKS
RAPID CTY ARPT CLOUDY    18  13  80 NE7       30.09R WCI   9
PIERRE         CLOUDY    20  15  81 N12       30.14R WCI   8
CUSTER         CLOUDY    17  11  77 W6        29.92R WCI   9
ELLSWORTH AFB  CLOUDY    18  12  79 NE3       30.08
PHILIP         FLURRIES  20  14  77 NW10      30.14R WCI   9
PINE RIDGE     CLOUDY    19  12  74 NE7       30.08R WCI  10
WINNER         CLOUDY    22  17  81 N13       30.12R WCI  10
$$

SDZ004>011-016>023-039-040-262300-
NORTHEAST SOUTH DAKOTA

CITY           SKY/WX    TMP DP  RH WIND       PRES   REMARKS
ABERDEEN       CLOUDY    22  16  78 N14       30.16R WCI   9
WATERTOWN      CLOUDY    21  17  84 NE15      30.07R WCI   8
SISSETON         N/A     23  19  85 NE18      30.13S WCI   9
$$

SDZ017-020-022-023-036>040-048>070-262300-
SOUTHEAST SOUTH DAKOTA

CITY           SKY/WX    TMP DP  RH WIND       PRES   REMARKS
SIOUX FALLS    LGT SNOW  26  22  84 N15       30.04S FOG     WCI  14
HURON          CLOUDY    23  18  81 N14       30.14R WCI  11
MITCHELL       CLOUDY    25  21  85 N14       30.12R WCI  13
YANKTON        CLOUDY    27  21  80 NW12G18   30.09R WCI  16
$$

ABBREVIATIONS USED IN REMARKS
   TC - TEMPERATURE IN CELSIUS
  WCI - WIND CHILL INDEX
   HX - HEAT INDEX
  VSB - VISIBILITY




USA.gov is the U.S. government's official web portal to all federal, state and local government web resources and services.